TJS-24

Last updated on Tue Sep 22 2026 00:03:17 GMT+0000 (Coordinated Universal Time)

1 69235U 26116A 26264.60061035 -.00000236 00000+0 00000+0 0 9992 2 69235 0.2503 88.3465 0001256 173.5217 45.1616 1.00273566 1195
UTC large
Height (km)
Speed (km/s)
/
Latitude / Longitude
Inclination (degrees)
Orbital Period (minutes)
Azimuth
Elevation
Range (km)
Doppler Factor

Next 0 passes for location: London (51.5072 / 0.1276)

No passes found over London.
TJS-24